period_start,C,m1,H,J0,J1,J2,J3,J4,J5,JA,JB,JC,JD,JJ,JK,JN,#
2017-05-17 00:04:20,-0.00,0.06,0.00,20.86,24.42,28.38,14.57,48.72,1009.78,2042.63,3491.75,3106.96,3562.15,600.04,596.44,1.82,0000 0000 0000 0000 000000
2017-05-17 00:09:21,0.02,0.06,0.00,20.93,24.47,28.42,14.53,48.64,1009.78,2042.08,3490.64,3106.10,3561.18,599.81,596.03,1.87,0000 0000 0000 0000 000000
2017-05-17 00:14:23,0.04,0.06,0.00,20.98,24.51,28.48,14.46,48.67,1009.78,2042.00,3489.63,3105.33,3560.18,599.72,595.95,1.92,0000 0000 0000 0000 000000
2017-05-17 00:19:24,0.05,0.07,0.00,21.03,24.55,28.50,14.58,48.67,1009.78,2042.00,3488.45,3104.55,3559.25,600.18,596.24,1.97,0000 0000 0000 0000 000000
2017-05-17 00:24:25,0.05,0.07,0.00,21.09,24.60,28.52,14.47,48.64,1009.78,2042.00,3487.34,3103.71,3558.23,599.85,595.78,2.02,0000 0000 0000 0000 000000
2017-05-17 00:29:27,0.03,0.07,0.00,21.15,24.64,28.52,14.58,48.75,1009.78,2041.91,3486.11,3102.92,3557.29,600.15,595.93,2.07,0000 0000 0000 0000 000000
2017-05-17 00:34:28,-0.01,0.07,0.00,21.19,24.69,28.59,14.52,48.73,1009.78,2041.26,3484.92,3102.02,3556.24,599.97,595.63,2.12,0000 0000 0000 0000 000000
2017-05-17 00:39:29,0.05,0.07,0.00,21.26,24.73,28.59,14.53,48.78,1009.78,2041.03,3483.76,3101.13,3555.29,599.91,595.48,2.17,0000 0000 0000 0000 000000
2017-05-17 00:44:31,0.07,0.08,0.00,21.32,24.78,28.64,14.54,48.73,1009.78,2041.00,3482.23,3100.10,3553.94,600.21,595.61,2.22,0000 0000 0000 0000 000000
2017-05-17 00:49:32,0.13,0.08,0.00,21.39,24.83,28.65,14.53,48.69,1009.77,2040.99,3479.32,3098.42,3551.96,600.18,595.39,2.27,0000 0000 0000 0000 000000
2017-05-17 00:54:34,0.12,0.09,0.00,21.42,24.87,28.71,14.54,48.73,1009.78,2040.97,3475.70,3096.30,3549.58,600.31,595.54,2.32,0000 0000 0000 0000 000000
2017-05-17 00:59:35,0.05,0.09,0.00,21.49,24.92,28.75,14.50,48.63,1009.78,2040.68,3473.44,3094.97,3548.02,599.91,594.94,2.37,0000 0000 0000 0000 000000
2017-05-17 01:04:36,0.07,0.10,0.00,21.54,24.96,28.80,14.48,48.62,1009.76,2040.14,3470.63,3093.32,3546.09,600.12,595.09,2.42,0000 0000 0000 0000 000000
2017-05-17 01:09:38,0.08,0.10,0.00,21.63,25.01,28.83,14.45,48.67,1009.76,2040.02,3468.36,3091.91,3544.37,599.80,594.63,2.47,0000 0000 0000 0000 000000
2017-05-17 01:14:39,0.05,0.10,0.00,21.67,25.06,28.86,14.42,48.60,1009.76,2040.00,3467.07,3091.02,3543.42,599.98,594.66,2.52,0000 0000 0000 0000 000000
2017-05-17 01:19:40,0.07,0.11,0.00,21.74,25.11,28.90,14.45,48.58,1009.76,2039.98,3465.47,3089.97,3542.12,599.79,594.40,2.57,0000 0000 0000 0000 000000
2017-05-17 01:24:42,0.07,0.11,0.00,21.79,25.16,28.94,14.43,48.58,1009.76,2039.86,3463.64,3088.76,3540.66,600.01,594.52,2.62,0000 0000 0000 0000 000000
2017-05-17 01:29:43,0.01,0.11,0.00,21.87,25.21,28.96,14.43,48.45,1009.63,2039.45,3462.05,3087.76,3539.50,599.98,594.23,2.67,0000 0000 0000 0000 000000
2017-05-17 01:34:45,0.03,0.11,0.00,21.93,25.26,29.03,14.41,48.54,1009.54,2039.03,3460.69,3086.86,3538.33,599.69,593.71,2.72,0000 0000 0000 0000 000000
2017-05-17 01:39:46,0.06,0.12,0.00,21.99,25.31,29.07,14.54,48.48,1009.68,2039.00,3459.27,3085.82,3537.25,600.10,594.10,2.77,0000 0000 0000 0000 000000
2017-05-17 01:44:47,0.07,0.12,0.00,22.05,25.36,29.13,14.47,48.51,1009.77,2038.98,3457.62,3084.74,3535.94,600.04,594.13,2.82,0000 0000 0000 0000 000000
2017-05-17 01:49:49,0.02,0.12,0.00,22.10,25.41,29.20,14.47,48.45,1009.78,2038.56,3455.98,3083.67,3534.68,600.07,593.92,2.87,0000 0000 0000 0000 000000
2017-05-17 01:54:50,0.03,0.12,0.00,22.18,25.47,29.26,14.53,48.51,1009.76,2038.12,3454.65,3082.71,3533.55,600.31,593.90,2.92,0000 0000 0000 0000 000000
2017-05-17 01:59:51,0.05,0.12,0.00,22.25,25.52,29.29,14.37,48.36,1009.77,2038.01,3453.26,3081.76,3532.42,599.65,593.18,2.97,0000 0000 0000 0000 000000
2017-05-17 02:04:52,0.05,0.13,0.00,22.30,25.58,29.34,14.53,48.41,1009.75,2038.00,3452.04,3080.87,3531.38,600.35,593.63,3.02,0000 0000 0000 0000 000000
2017-05-17 02:09:54,0.05,0.13,0.00,22.36,25.64,29.41,14.41,48.23,1009.72,2037.95,3450.71,3079.95,3530.27,599.95,593.23,3.07,0000 0000 0000 0000 000000
2017-05-17 02:14:55,0.01,0.13,0.00,22.44,25.70,29.44,14.46,48.29,1009.65,2037.52,3449.60,3079.06,3529.17,600.00,593.13,3.12,0000 0000 0000 0000 000000
2017-05-17 02:19:56,0.02,0.13,0.00,22.49,25.75,29.51,14.47,48.33,1009.70,2037.04,3448.50,3078.16,3528.19,600.05,593.05,3.17,0000 0000 0000 0000 000000
2017-05-17 02:24:57,0.05,0.14,0.00,22.59,25.81,29.60,14.36,48.32,1009.69,2037.00,3447.31,3077.35,3527.15,599.81,592.55,3.22,0000 0000 0000 0000 000000
2017-05-17 02:29:59,0.05,0.14,0.00,22.64,25.87,29.66,14.44,48.29,1009.66,2036.97,3446.10,3076.50,3526.09,599.87,592.58,3.28,0000 0000 0000 0000 000000
2017-05-17 02:35:00,0.00,0.14,0.00,22.70,25.93,29.68,14.37,48.23,1009.66,2036.60,3444.90,3075.64,3524.99,599.69,592.24,3.33,0000 0000 0000 0000 000000
2017-05-17 02:40:01,0.02,0.14,0.00,22.76,25.98,29.75,14.50,48.31,1009.67,2036.05,3443.71,3074.74,3523.95,599.97,592.42,3.38,0000 0000 0000 0000 000000
2017-05-17 02:45:03,0.05,0.14,0.00,22.85,26.04,29.82,14.46,48.32,1009.77,2036.00,3442.64,3073.87,3522.90,599.95,592.26,3.43,0000 0000 0000 0000 000000
2017-05-17 02:50:04,0.05,0.14,0.00,22.95,26.11,29.88,14.41,48.24,1009.78,2035.98,3441.41,3072.99,3521.84,599.97,592.06,3.48,0000 0000 0000 0000 000000
2017-05-17 02:55:05,-0.01,0.15,0.00,23.32,26.18,29.94,14.48,48.32,1009.78,2035.52,3440.38,3072.07,3520.71,600.73,592.14,3.53,0000 0000 0000 0000 000000
2017-05-17 03:00:06,0.04,0.15,0.00,23.33,26.25,29.93,14.44,48.36,1009.78,2035.03,3439.11,3071.13,3519.62,600.15,591.61,3.58,0000 0000 0000 0000 000000
2017-05-17 03:05:08,0.05,0.15,0.00,23.64,26.33,29.95,14.34,48.35,1009.74,2035.00,3437.84,3070.28,3518.64,599.75,590.48,3.63,0000 0000 0000 0000 000000
2017-05-17 03:10:09,0.03,0.15,0.00,23.85,26.41,30.04,14.28,48.27,1009.52,2034.80,3436.64,3069.34,3517.44,599.89,590.06,3.68,0000 0000 0000 0000 000000
2017-05-17 03:15:10,0.00,0.15,0.00,23.98,26.48,30.07,14.38,48.33,1009.58,2034.14,3435.48,3068.40,3516.37,599.91,589.84,3.73,0000 0000 0000 0000 000000
2017-05-17 03:20:12,0.05,0.15,0.00,24.03,26.54,30.10,14.43,48.35,1009.60,2034.01,3434.26,3067.55,3515.29,600.07,589.92,3.78,0000 0000 0000 0000 000000
2017-05-17 03:25:13,0.05,0.16,0.00,24.11,26.59,30.12,14.32,48.36,1009.71,2033.99,3432.92,3066.62,3514.29,600.06,589.82,3.83,0000 0000 0000 0000 000000
2017-05-17 03:30:14,0.03,0.16,0.00,24.18,26.64,30.16,14.32,48.21,1009.72,2033.94,3431.87,3065.92,3513.30,599.68,589.29,3.88,0000 0000 0000 0000 000000
2017-05-17 03:35:15,-0.01,0.16,0.00,24.02,26.69,30.24,14.39,48.44,1009.75,2033.31,3430.70,3065.05,3512.24,599.81,589.73,3.93,0000 0000 0000 0000 000000
2017-05-17 03:40:17,0.04,0.16,0.00,23.88,26.72,30.33,14.38,48.27,1009.75,2033.02,3429.58,3064.17,3511.30,599.90,590.16,3.98,0000 0000 0000 0000 000000
2017-05-17 03:45:18,0.04,0.16,0.00,24.05,26.75,30.32,14.42,48.38,1009.74,2033.00,3428.54,3063.64,3510.46,600.07,589.98,4.03,0000 0000 0000 0000 000000
2017-05-17 03:50:19,0.03,0.16,0.00,24.08,26.78,30.28,14.27,48.23,1009.76,2033.00,3427.59,3062.93,3509.58,599.94,589.78,4.08,0000 0000 0000 0000 000000
2017-05-17 03:55:20,0.04,0.17,0.00,24.22,26.81,30.32,14.32,48.13,1009.71,2032.98,3426.66,3062.11,3508.82,599.95,589.54,4.13,0000 0000 0000 0000 000000
2017-05-17 04:00:22,0.04,0.17,0.00,24.31,26.85,30.33,14.31,47.97,1009.59,2032.94,3425.57,3061.46,3507.96,599.92,589.20,4.18,0000 0000 0000 0000 000000
2017-05-17 04:05:23,0.00,0.17,0.00,24.34,26.87,30.33,14.29,48.06,1009.32,2032.63,3424.54,3060.84,3507.10,599.68,588.81,4.23,0000 0000 0000 0000 000000
2017-05-17 04:10:24,0.03,0.17,0.00,24.35,26.89,30.33,14.28,48.00,1009.30,2032.40,3423.62,3060.07,3506.41,599.84,588.98,4.28,0000 0000 0000 0000 000000
2017-05-17 04:15:25,0.03,0.17,0.00,24.38,26.91,30.36,14.34,48.04,1009.29,2032.10,3422.57,3059.51,3505.62,599.95,588.84,4.33,0000 0000 0000 0000 000000
2017-05-17 04:20:27,0.02,0.17,0.00,24.39,26.92,30.33,14.29,48.08,1009.29,2032.03,3421.60,3058.97,3504.92,600.03,589.09,4.38,0000 0000 0000 0000 000000
2017-05-17 04:25:28,0.05,0.18,0.00,24.47,26.94,30.36,14.26,48.20,1009.29,2032.01,3420.62,3058.13,3504.07,600.01,588.92,4.43,0000 0000 0000 0000 000000
2017-05-17 04:30:29,0.04,0.18,0.00,24.48,26.95,30.38,14.27,48.07,1009.26,2032.00,3419.74,3057.54,3503.16,599.90,588.75,4.48,0000 0000 0000 0000 000000
2017-05-17 04:35:31,0.04,0.18,0.00,24.49,26.95,30.36,14.23,48.08,1009.16,2032.00,3418.64,3056.92,3502.45,599.72,588.49,4.53,0000 0000 0000 0000 000000
2017-05-17 04:40:32,0.07,0.18,0.00,24.50,26.96,30.35,14.34,48.07,1009.14,2032.00,3417.04,3055.97,3501.40,600.46,589.05,4.58,0000 0000 0000 0000 000000
2017-05-17 04:45:33,0.05,0.19,0.00,24.53,26.97,30.34,14.23,48.02,1009.19,2032.00,3415.80,3055.10,3500.36,600.08,588.71,4.63,0000 0000 0000 0000 000000
2017-05-17 04:50:34,0.03,0.19,0.00,24.57,26.97,30.37,14.27,47.88,1009.28,2032.00,3414.95,3054.58,3499.75,600.06,588.67,4.68,0000 0000 0000 0000 000000
2017-05-17 04:55:36,0.07,0.19,0.00,24.55,26.97,30.34,14.25,47.99,1009.27,2032.00,3413.45,3053.62,3498.56,600.05,588.69,4.73,0000 0000 0000 0000 000000
2017-05-17 05:00:37,0.10,0.20,0.00,24.55,26.98,30.35,14.24,47.94,1009.27,2031.99,3411.00,3052.02,3496.64,599.94,588.56,4.78,0000 0000 0000 0000 000000
2017-05-17 05:05:38,0.05,0.20,0.00,24.53,26.99,30.35,14.26,48.11,1009.20,2031.98,3409.46,3051.03,3495.55,600.17,588.80,4.83,0000 0000 0000 0000 000000
2017-05-17 05:10:39,0.04,0.20,0.00,24.50,27.00,30.37,14.28,47.96,1009.22,2031.96,3408.50,3050.27,3494.82,600.13,588.82,4.88,0000 0000 0000 0000 000000
2017-05-17 05:15:41,0.02,0.20,0.00,24.53,27.00,30.36,14.27,48.04,1009.27,2031.95,3407.66,3049.95,3494.04,599.85,588.56,4.93,0000 0000 0000 0000 000000
2017-05-17 05:20:42,0.03,0.21,0.00,24.58,27.00,30.34,14.22,47.80,1009.29,2031.89,3406.88,3049.15,3493.31,599.99,588.68,4.98,0000 0000 0000 0000 000000
2017-05-17 05:25:43,0.02,0.21,0.00,24.54,27.00,30.37,14.29,47.95,1009.29,2031.85,3405.97,3048.88,3492.76,600.26,588.93,5.03,0000 0000 0000 0000 000000
2017-05-17 05:30:45,0.02,0.21,0.00,24.55,27.02,30.37,14.24,47.94,1009.30,2031.67,3405.11,3048.10,3492.03,599.52,588.19,5.08,0000 0000 0000 0000 000000
2017-05-17 05:35:46,0.01,0.21,0.00,24.57,27.02,30.38,14.27,47.90,1009.29,2031.44,3404.28,3047.94,3491.42,599.80,588.47,5.13,0000 0000 0000 0000 000000
2017-05-17 05:40:47,0.02,0.21,0.00,24.56,27.02,30.37,14.28,47.96,1009.29,2031.26,3403.73,3047.18,3490.86,599.72,588.25,5.18,0000 0000 0000 0000 000000
2017-05-17 05:45:48,0.01,0.21,0.00,24.59,27.03,30.38,14.27,48.03,1009.29,2031.04,3402.78,3046.84,3490.05,599.86,588.49,5.23,0000 0000 0000 0000 000000
2017-05-17 05:50:49,0.04,0.21,0.00,24.53,27.05,30.38,14.27,48.11,1009.27,2031.02,3402.02,3046.11,3489.37,599.86,588.52,5.28,0000 0000 0000 0000 000000
2017-05-17 05:55:51,0.02,0.21,0.00,24.56,27.05,30.38,14.21,47.92,1009.26,2031.03,3401.23,3045.95,3488.92,599.79,588.31,5.33,0000 0000 0000 0000 000000
2017-05-17 06:00:52,0.05,0.22,0.00,24.54,27.05,30.36,14.36,48.02,1009.18,2031.02,3400.41,3045.18,3488.17,600.16,588.72,5.38,0000 0000 0000 0000 000000
2017-05-17 06:05:54,0.02,0.22,0.00,24.55,27.06,30.35,14.26,48.14,1009.13,2031.02,3399.48,3044.94,3487.76,599.99,588.53,5.43,0000 0000 0000 0000 000000
2017-05-17 06:10:55,0.03,0.22,0.00,24.46,27.07,30.38,14.30,47.99,1009.22,2031.03,3398.76,3044.18,3487.04,600.03,588.76,5.48,0000 0000 0000 0000 000000
2017-05-17 06:15:56,0.02,0.22,0.00,24.53,27.07,30.34,14.33,48.07,1009.24,2031.03,3397.92,3043.97,3486.43,600.41,589.13,5.53,0000 0000 0000 0000 000000
2017-05-17 06:20:57,0.03,0.22,0.00,24.53,27.07,30.34,14.27,47.94,1009.19,2031.02,3397.05,3043.24,3485.97,599.90,588.49,5.58,0000 0000 0000 0000 000000
2017-05-17 06:25:58,0.03,0.22,0.00,24.59,27.07,30.36,14.17,48.07,1008.99,2031.02,3396.15,3042.98,3485.15,599.32,587.74,5.64,0000 0000 0000 0000 000000
2017-05-17 06:31:00,0.04,0.23,0.00,24.56,27.08,30.37,14.29,48.26,1008.83,2031.01,3395.47,3042.38,3484.75,600.08,588.43,5.69,0000 0000 0000 0000 000000
2017-05-17 06:36:01,0.02,0.23,0.00,24.58,27.09,30.38,14.32,48.22,1009.06,2031.03,3394.82,3042.00,3484.04,599.95,588.33,5.74,0000 0000 0000 0000 000000
2017-05-17 06:41:02,0.04,0.23,0.00,24.58,27.09,30.39,14.32,48.07,1009.28,2031.00,3393.91,3041.55,3483.49,600.27,588.71,5.79,0000 0000 0000 0000 000000
2017-05-17 06:46:04,0.02,0.23,0.00,24.46,27.10,30.40,14.25,48.22,1009.29,2031.00,3393.06,3041.01,3482.90,599.73,588.58,5.84,0000 0000 0000 0000 000000
2017-05-17 06:51:05,0.04,0.23,0.00,24.41,27.10,30.39,14.27,48.04,1009.29,2031.00,3392.26,3040.61,3482.12,599.99,588.96,5.89,0000 0000 0000 0000 000000
2017-05-17 06:56:07,0.03,0.23,0.00,24.51,27.10,30.38,14.23,48.09,1009.29,2031.00,3391.49,3040.04,3481.66,599.50,588.24,5.94,0000 0000 0000 0000 000000
2017-05-17 07:01:08,0.02,0.24,0.00,24.52,27.10,30.39,14.32,48.08,1009.28,2031.01,3390.80,3039.83,3480.93,599.98,588.67,5.99,0000 0000 0000 0000 000000
2017-05-17 07:06:09,0.10,0.24,0.00,24.49,27.10,30.39,14.29,48.00,1009.29,2031.00,3388.91,3038.44,3479.52,599.79,588.53,6.04,0000 0000 0000 0000 000000
2017-05-17 07:11:10,0.09,0.25,0.00,24.50,27.10,30.38,14.21,48.07,1009.29,2031.01,3386.52,3037.06,3477.84,599.68,588.37,6.09,0000 0000 0000 0000 000000
2017-05-17 07:16:11,0.05,0.25,0.00,24.52,27.10,30.39,14.28,48.08,1009.29,2031.01,3385.20,3036.14,3477.02,599.60,588.31,6.14,0000 0000 0000 0000 000000
2017-05-17 07:21:13,0.02,0.25,0.00,24.49,27.10,30.40,14.25,48.06,1009.17,2031.02,3384.46,3036.00,3476.57,599.84,588.48,6.19,0000 0000 0000 0000 000000
2017-05-17 07:26:14,0.03,0.25,0.00,24.49,27.10,30.40,14.34,48.19,1008.98,2031.01,3383.77,3035.42,3475.99,600.06,588.69,6.24,0000 0000 0000 0000 000000
2017-05-17 07:31:15,0.02,0.25,0.00,24.46,27.10,30.41,14.34,48.18,1008.96,2031.01,3382.99,3035.00,3475.23,600.08,588.70,6.29,0000 0000 0000 0000 000000
2017-05-17 07:36:17,0.02,0.25,0.00,24.45,27.10,30.38,14.31,48.17,1008.98,2031.03,3382.14,3034.80,3474.96,600.15,588.97,6.34,0000 0000 0000 0000 000000
2017-05-17 07:41:18,0.04,0.26,0.00,24.57,27.09,30.37,14.23,48.02,1009.10,2031.03,3381.50,3034.07,3474.15,599.80,588.30,6.39,0000 0000 0000 0000 000000
2017-05-17 07:46:20,0.01,0.26,0.00,24.45,27.09,30.39,14.27,48.14,1009.13,2031.02,3380.79,3033.93,3473.79,600.09,588.93,6.44,0000 0000 0000 0000 000000
2017-05-17 07:51:21,0.04,0.26,0.00,24.36,27.09,30.39,14.27,48.09,1009.06,2031.02,3380.02,3033.17,3473.05,600.05,588.89,6.49,0000 0000 0000 0000 000000
2017-05-17 07:56:22,0.02,0.26,0.00,24.38,27.08,30.38,14.29,48.24,1008.89,2031.05,3379.28,3033.00,3472.72,599.73,588.46,6.54,0000 0000 0000 0000 000000
2017-05-17 08:01:23,0.03,0.26,0.00,24.45,27.08,30.37,14.26,48.17,1008.88,2031.04,3378.62,3032.62,3472.02,600.21,588.82,6.59,0000 0000 0000 0000 000000
2017-05-17 08:06:25,0.02,0.26,0.00,24.40,27.07,30.37,14.32,48.13,1009.15,2031.04,3377.89,3032.02,3471.64,599.90,588.88,6.64,0000 0000 0000 0000 000000
2017-05-17 08:11:26,0.02,0.27,0.00,24.43,27.07,30.37,14.26,48.06,1009.28,2031.03,3377.07,3031.96,3471.02,600.14,588.99,6.69,0000 0000 0000 0000 000000
2017-05-17 08:16:27,0.05,0.27,0.00,24.43,27.07,30.37,14.31,48.20,1009.29,2031.03,3376.39,3031.26,3470.35,600.26,589.15,6.74,0000 0000 0000 0000 000000
2017-05-17 08:21:29,0.00,0.27,0.00,24.34,27.07,30.37,14.26,48.12,1009.29,2031.03,3375.88,3031.00,3469.99,599.99,589.05,6.79,0000 0000 0000 0000 000000
2017-05-17 08:26:30,0.04,0.27,0.00,24.33,27.07,30.36,14.32,48.04,1009.28,2031.08,3375.06,3030.79,3469.37,600.15,589.23,6.84,0000 0000 0000 0000 000000
2017-05-17 08:31:31,0.03,0.27,0.00,24.34,27.07,30.36,14.33,48.33,1009.01,2031.11,3374.47,3030.07,3469.00,600.06,588.96,6.89,0000 0000 0000 0000 000000
2017-05-17 08:36:32,0.01,0.27,0.00,24.33,27.07,30.36,14.27,48.19,1008.82,2031.13,3373.91,3029.99,3468.39,599.73,588.64,6.94,0000 0000 0000 0000 000000
2017-05-17 08:41:34,0.03,0.27,0.00,24.33,27.07,30.35,14.20,48.14,1008.83,2031.17,3373.10,3029.62,3467.99,599.71,588.54,6.99,0000 0000 0000 0000 000000
2017-05-17 08:46:35,0.03,0.28,0.00,24.33,27.07,30.32,14.28,48.25,1008.93,2031.10,3372.35,3029.02,3467.28,600.03,588.91,7.04,0000 0000 0000 0000 000000
2017-05-17 08:51:36,0.02,0.28,0.00,24.34,27.06,30.33,14.31,48.26,1009.22,2031.11,3371.75,3028.86,3466.93,600.56,589.54,7.09,0000 0000 0000 0000 000000
2017-05-17 08:56:38,0.03,0.28,0.00,24.35,27.05,30.33,14.26,48.17,1009.25,2031.05,3370.99,3028.07,3466.10,600.03,588.98,7.14,0000 0000 0000 0000 000000
2017-05-17 09:01:39,0.02,0.28,0.00,24.31,27.05,30.33,14.27,48.23,1009.22,2031.07,3370.14,3027.99,3465.72,599.90,589.00,7.19,0000 0000 0000 0000 000000
2017-05-17 09:06:40,0.04,0.28,0.00,24.27,27.05,30.33,14.29,48.10,1009.25,2031.05,3369.47,3027.46,3465.04,599.88,589.07,7.24,0000 0000 0000 0000 000000
2017-05-17 09:11:42,0.02,0.28,0.00,24.28,27.04,30.32,14.38,48.32,1009.29,2031.09,3368.83,3027.01,3464.80,599.90,589.04,7.29,0000 0000 0000 0000 000000
2017-05-17 09:16:44,0.03,0.29,0.00,24.25,27.03,30.30,14.38,48.31,1009.30,2031.11,3368.03,3026.77,3464.04,600.09,589.35,7.34,0000 0000 0000 0000 000000
2017-05-17 09:21:45,0.03,0.29,0.00,24.30,27.02,30.30,14.28,48.13,1009.30,2031.12,3367.25,3026.06,3463.63,599.86,589.01,7.39,0000 0000 0000 0000 000000
2017-05-17 09:26:46,0.03,0.29,0.00,24.26,27.02,30.29,14.26,48.27,1009.30,2031.23,3366.59,3025.98,3463.03,599.73,588.87,7.44,0000 0000 0000 0000 000000
2017-05-17 09:31:47,0.03,0.29,0.00,24.27,27.02,30.30,14.36,48.27,1009.29,2031.20,3365.90,3025.37,3462.55,600.39,589.49,7.49,0000 0000 0000 0000 000000
2017-05-17 09:36:48,0.02,0.29,0.00,24.27,27.00,30.28,14.37,48.22,1009.30,2031.19,3365.08,3025.00,3462.00,600.82,590.01,7.54,0000 0000 0000 0000 000000
2017-05-17 09:41:50,0.05,0.29,0.00,24.29,27.00,30.29,14.36,48.25,1009.33,2031.21,3364.31,3024.67,3461.38,600.26,589.46,7.59,0000 0000 0000 0000 000000
2017-05-17 09:46:51,0.02,0.29,0.00,24.30,27.00,30.26,14.27,48.07,1009.42,2031.17,3363.58,3024.02,3460.95,599.91,589.17,7.64,0000 0000 0000 0000 000000
2017-05-17 09:51:52,0.03,0.30,0.00,24.29,27.00,30.26,14.35,48.24,1009.33,2031.25,3362.91,3023.93,3460.24,600.04,589.32,7.69,0000 0000 0000 0000 000000
2017-05-17 09:56:54,0.07,0.30,0.00,24.28,26.99,30.28,14.30,48.18,1009.32,2031.58,3362.09,3023.23,3459.93,599.55,588.78,7.74,0000 0000 0000 0000 000000
2017-05-17 10:01:55,0.03,0.30,0.00,24.26,26.98,30.27,14.32,48.14,1009.30,2031.48,3361.26,3022.91,3459.10,599.78,589.05,7.79,0000 0000 0000 0000 000000
2017-05-17 10:06:57,0.09,0.31,0.00,24.28,26.97,30.30,14.40,48.19,1009.29,2031.46,3358.81,3021.73,3457.91,600.36,589.56,7.84,0000 0000 0000 0000 000000
2017-05-17 10:11:58,0.13,0.31,0.00,24.27,26.97,30.30,14.40,48.17,1009.28,2031.33,3354.40,3019.89,3455.79,600.09,589.33,7.89,0000 0000 0000 0000 000000
2017-05-17 10:16:59,0.05,0.32,0.00,24.31,26.97,30.28,14.35,48.26,1009.28,2031.19,3352.15,3018.98,3454.54,599.92,589.13,7.94,0000 0000 0000 0000 000000
2017-05-17 10:22:00,0.05,0.32,0.00,24.29,26.97,30.29,14.31,48.17,1009.29,2031.35,3351.13,3018.23,3453.99,599.69,588.82,8.00,0000 0000 0000 0000 000000
2017-05-17 10:27:01,0.05,0.32,0.00,24.31,26.96,30.30,14.30,48.23,1009.29,2031.47,3350.14,3017.87,3453.25,599.99,589.06,8.05,0000 0000 0000 0000 000000
2017-05-17 10:32:03,0.05,0.32,0.00,24.24,26.95,30.28,14.28,48.17,1009.29,2031.40,3348.59,3016.94,3452.28,599.62,588.91,8.10,0000 0000 0000 0000 000000
2017-05-17 10:37:04,0.08,0.33,0.00,24.21,26.95,30.25,14.33,48.01,1009.29,2031.46,3346.60,3015.93,3451.01,600.00,589.33,8.15,0000 0000 0000 0000 000000
2017-05-17 10:42:06,0.14,0.33,0.00,24.28,26.95,30.25,14.30,48.13,1009.32,2031.62,3343.95,3014.50,3449.33,599.77,589.15,8.20,0000 0000 0000 0000 000000
2017-05-17 10:47:07,0.18,0.34,0.00,24.27,26.93,30.26,14.35,48.15,1009.31,2031.74,3340.14,3012.14,3446.62,600.40,589.54,8.25,0000 0000 0000 0000 000000
2017-05-17 10:52:08,0.29,0.36,0.00,24.20,26.92,30.24,14.29,48.11,1009.32,2031.61,3333.93,3007.94,3441.81,599.70,589.10,8.30,0000 0000 0000 0000 000000
2017-05-17 10:57:10,0.27,0.37,0.00,24.29,26.92,30.25,14.31,48.03,1009.46,2031.42,3327.57,3003.44,3436.65,600.05,589.32,8.35,0000 0000 0000 0000 000000
2017-05-17 11:02:11,0.17,0.38,0.00,24.29,26.92,30.25,14.28,48.08,1009.43,2031.39,3323.29,3000.56,3433.37,599.64,588.89,8.40,0000 0000 0000 0000 000000
2017-05-17 11:07:13,0.14,0.39,0.00,24.23,26.90,30.20,14.32,48.17,1009.58,2031.65,3320.64,2998.81,3431.33,599.84,589.26,8.45,0000 0000 0000 0000 000000
2017-05-17 11:12:14,0.35,0.40,0.00,24.24,26.90,30.19,14.32,48.02,1009.68,2031.79,3314.92,2994.20,3426.31,600.04,589.64,8.50,0000 0000 0000 0000 000000
2017-05-17 11:17:15,0.44,0.42,0.00,24.29,26.90,30.19,14.26,48.05,1009.77,2031.70,3306.49,2987.39,3418.69,599.75,589.22,8.55,0000 0000 0000 0000 000000
2017-05-17 11:22:16,0.23,0.44,0.00,24.34,26.90,30.17,14.33,48.11,1009.73,2031.62,3300.26,2982.75,3413.56,600.08,589.52,8.60,0000 0000 0000 0000 000000
2017-05-17 11:27:18,0.10,0.45,0.00,24.42,26.90,30.18,14.30,48.15,1009.62,2031.71,3297.64,2981.06,3411.58,600.00,589.03,8.65,0000 0000 0000 0000 000000
2017-05-17 11:32:19,0.06,0.45,0.00,24.45,26.92,30.18,14.28,48.08,1009.56,2031.71,3296.26,2980.10,3410.53,599.95,588.98,8.70,0000 0000 0000 0000 000000
2017-05-17 11:37:20,0.02,0.45,0.00,24.49,26.92,30.16,14.35,47.92,1009.43,2031.68,3295.48,2979.65,3409.85,600.28,589.15,8.75,0000 0000 0000 0000 000000
2017-05-17 11:42:21,0.01,0.45,0.00,24.49,26.92,30.19,14.29,47.95,1009.41,2031.41,3294.29,2978.97,3408.99,599.81,588.66,8.80,0000 0000 0000 0000 000000
2017-05-17 11:47:22,0.08,0.46,0.00,24.47,26.92,30.25,14.32,47.98,1009.48,2031.54,3293.11,2978.12,3408.07,599.97,588.83,8.85,0000 0000 0000 0000 000000
2017-05-17 11:52:23,0.05,0.46,0.00,24.52,26.92,30.29,14.35,48.11,1009.44,2031.64,3291.98,2977.42,3407.19,600.18,588.80,8.90,0000 0000 0000 0000 000000
2017-05-17 11:57:25,0.05,0.46,0.00,24.50,26.92,30.32,14.36,48.21,1009.34,2031.59,3290.77,2976.73,3406.25,600.25,588.95,8.95,0000 0000 0000 0000 000000
2017-05-17 12:02:26,0.03,0.47,0.00,24.44,26.92,30.33,14.36,48.14,1009.56,2031.55,3289.67,2976.01,3405.34,600.04,589.09,9.00,0000 0000 0000 0000 000000
2017-05-17 12:07:28,0.04,0.47,0.00,24.42,26.92,30.33,14.24,48.05,1009.74,2031.37,3288.73,2975.26,3404.63,599.67,588.88,9.05,0000 0000 0000 0000 000000
2017-05-17 12:12:29,0.03,0.47,0.00,24.32,26.92,30.31,14.30,47.96,1009.77,2031.37,3287.88,2974.84,3403.98,599.83,589.27,9.10,0000 0000 0000 0000 000000
2017-05-17 12:17:30,0.04,0.47,0.00,24.36,26.92,30.32,14.26,48.17,1009.71,2031.35,3286.98,2974.07,3403.14,599.97,589.37,9.15,0000 0000 0000 0000 000000
2017-05-17 12:22:31,0.04,0.47,0.00,24.34,26.92,30.30,14.34,48.23,1009.75,2031.41,3286.01,2973.63,3402.44,599.95,589.33,9.20,0000 0000 0000 0000 000000
2017-05-17 12:27:33,0.02,0.47,0.00,24.27,26.92,30.29,14.32,48.25,1009.78,2031.28,3285.10,2973.01,3401.82,599.97,589.53,9.25,0000 0000 0000 0000 000000
2017-05-17 12:32:34,0.04,0.48,0.00,24.29,26.91,30.27,14.31,48.23,1009.72,2031.21,3284.16,2972.43,3401.05,600.16,589.52,9.30,0000 0000 0000 0000 000000
2017-05-17 12:37:35,0.06,0.48,0.00,24.32,26.90,30.28,14.35,48.21,1009.48,2031.42,3283.48,2972.01,3400.58,600.29,589.52,9.35,0000 0000 0000 0000 000000
2017-05-17 12:42:37,0.02,0.48,0.00,24.31,26.90,30.26,14.36,48.28,1009.40,2031.39,3282.68,2971.66,3399.98,599.81,588.95,9.40,0000 0000 0000 0000 000000
2017-05-17 12:47:38,0.03,0.48,0.00,24.28,26.90,30.25,14.25,48.08,1009.60,2031.31,3281.89,2971.01,3399.20,599.59,589.03,9.45,0000 0000 0000 0000 000000
2017-05-17 12:52:39,0.07,0.49,0.00,24.24,26.88,30.22,14.29,48.08,1009.57,2031.44,3280.79,2970.25,3398.34,600.04,589.50,9.50,0000 0000 0000 0000 000000
2017-05-17 12:57:41,0.05,0.49,0.00,24.39,26.87,30.21,14.28,48.08,1009.36,2031.51,3279.75,2969.65,3397.58,599.80,588.86,9.55,0000 0000 0000 0000 000000
2017-05-17 13:02:42,0.04,0.49,0.00,24.29,26.87,30.20,14.36,48.16,1009.35,2031.59,3278.74,2969.01,3396.83,600.39,589.62,9.60,0000 0000 0000 0000 000000